Wind_Speed
11 10 8 6 6 8 7 7 13 15 15 13 10 7 7 6 2 2 0 2 2 3 5 7 10 14 16 18 20 22 21 21 19 16 15 15 15 14 14 13 11 8 8 9 7 7 6 6 6
10 9 8 7 7 8 9 9 10 17 16 14 12 9 9 6 5 4 3 3 4 4 5 6 8 12 14 17 18 20 20 20 19 15 13 14 15 14 14 14 10 6 7 8 7 7 5 5 4
10 10 9 8 9 10 10 10 12 18 17 14 12 11 10 9 8 7 6 6 7 6 7 6 7 10 13 16 18 19 19 19 19 15 13 13 13 14 15 15 10 4 7 7 7 8 7 6 6
9 9 6 7 10 12 12 12 13 17 18 15 13 13 12 11 10 10 10 10 10 10 9 8 8 10 12 15 18 18 19 20 19 14 11 12 13 15 16 15 9 3 5 7 9 10 10 8 7
10 9 7 6 10 13 14 14 15 20 19 17 15 15 13 13 12 13 13 13 14 13 13 12 10 12 14 16 17 19 19 18 18 14 11 11 13 14 15 16 9 4 5 7 10 12 10 9 9
11 10 8 7 10 13 16 15 16 19 20 19 18 16 15 15 14 15 15 16 16 17 17 17 15 15 16 17 18 19 19 17 16 15 13 11 12 13 16 15 13 7 8 8 11 11 11 10 9
12 11 9 10 10 12 16 17 16 18 18 18 18 17 18 15 14 16 18 18 19 20 21 21 20 19 19 19 20 20 20 18 16 15 14 11 11 12 14 15 15 11 10 11 11 12 12 12 10
15 14 11 13 14 11 15 17 15 16 18 19 18 16 20 17 16 16 19 20 22 24 25 25 24 22 22 22 22 22 21 20 17 16 15 13 12 12 13 14 14 15 12 12 13 13 13 14 14
20 17 15 17 17 14 15 17 16 16 16 20 20 21 22 20 19 19 20 22 24 26 28 27 27 26 26 25 26 24 22 22 19 17 16 16 15 15 15 14 14 13 14 14 13 15 15 16 16
22 19 18 19 19 17 17 18 19 16 17 20 22 25 22 21 22 22 22 24 25 26 26 27 27 28 28 28 29 27 25 23 22 20 19 17 17 17 17 16 14 14 13 14 16 16 17 18 17
19 19 18 19 20 19 19 20 21 19 16 23 24 23 22 24 24 24 25 26 26 26 26 28 28 29 31 31 30 30 27 25 25 24 22 21 19 18 18 17 17 16 15 16 16 17 18 19 19
19 20 19 20 21 20 21 21 23 21 21 24 24 22 22 25 25 26 26 28 28 26 27 29 31 32 33 33 33 32 30 29 28 27 26 24 22 19 18 17 17 18 19 18 18 19 19 20 21
18 20 20 20 21 22 21 23 24 19 25 28 27 25 26 26 26 27 29 28 30 29 31 32 33 34 34 35 35 35 34 33 31 30 30 28 27 25 22 20 19 19 20 21 21 21 22 23 23
21 22 22 21 24 24 24 22 21 24 33 32 29 29 30 29 29 30 28 31 32 34 34 36 36 35 36 36 37 38 38 37 35 34 33 31 30 29 28 26 24 23 22 23 24 24 24 24 26
25 24 24 24 27 28 28 19 21 32 33 32 34 34 34 32 32 30 32 33 33 34 35 36 38 37 37 38 38 39 41 40 39 38 36 34 34 33 33 32 30 28 26 25 26 26 27 27 27
27 28 26 25 28 31 33 20 27 30 34 36 37 37 37 36 36 35 36 35 37 39 38 40 40 39 39 39 40 40 41 42 41 40 39 37 37 37 36 36 35 33 31 29 29 29 29 29 30
28 30 29 28 29 37 39 31 27 32 38 39 39 40 40 41 41 38 39 40 43 43 43 44 44 42 42 42 42 42 41 41 41 41 41 41 42 40 39 39 38 36 35 33 32 32 31 31 32
31 32 32 30 32 39 40 39 33 34 40 40 41 43 45 45 43 42 42 43 45 47 47 47 47 46 45 45 46 44 42 41 42 43 44 45 44 42 41 41 39 39 37 36 34 33 32 32 33
29 31 31 30 31 39 36 39 35 31 36 41 41 42 44 46 46 47 49 48 50 50 50 50 50 50 51 48 47 46 45 46 45 46 45 45 45 43 43 42 40 40 39 37 36 35 34 34 34
32 33 33 33 32 37 39 37 36 34 31 35 40 41 43 46 47 48 50 52 54 55 55 55 53 52 52 51 50 50 49 49 48 48 47 46 46 47 46 42 42 42 40 38 37 36 35 35 35
32 32 33 34 30 29 37 37 34 31 28 32 36 39 42 47 49 52 54 54 55 56 58 58 58 57 56 54 53 51 52 51 51 49 50 50 52 50 45 42 43 42 41 39 38 38 37 37 36
28 28 32 35 39 40 41 45 38 44 44 42 45 45 44 42 44 48 52 55 55 56 59 59 59 59 57 55 54 52 52 52 51 53 53 52 52 48 45 44 43 43 42 40 40 38 39 39 36
36 37 41 44 46 50 51 52 50 50 55 55 56 55 57 56 53 52 53 51 52 55 58 60 61 61 61 61 58 56 56 54 54 53 52 52 51 48 46 45 43 43 42 41 41 39 40 40 39
43 47 50 51 54 56 61 60 58 60 60 62 67 67 65 64 64 63 63 60 59 57 56 58 61 60 60 59 59 58 56 56 56 54 55 52 51 50 47 45 44 44 43 43 42 41 41 40 39
48 52 55 58 60 60 64 63 56 65 71 72 73 76 80 81 79 75 74 71 65 64 64 61 62 61 61 59 56 56 56 57 56 55 55 53 52 50 47 48 43 44 43 44 44 42 42 41 40
54 57 60 65 67 67 68 72 70 78 83 86 84 85 88 90 92 92 83 77 69 69 68 67 66 61 62 62 56 52 55 57 55 54 52 54 54 50 49 46 44 44 44 44 43 42 42 41 42
61 62 65 71 72 79 79 86 84 85 90 97 98 97 99 102 101 95 89 78 74 63 65 66 68 65 65 63 59 52 55 58 55 51 51 51 51 49 46 45 45 45 44 44 42 42 42 41 43
62 65 69 75 82 88 89 91 97 100 101 104 104 102 102 104 101 88 80 71 69 52 49 56 59 65 68 64 63 58 56 58 58 54 52 51 50 48 47 46 47 46 44 44 42 41 41 42 42
67 73 77 81 85 91 98 96 99 100 100 102 100 101 93 92 84 77 74 75 74 64 56 56 64 64 59 59 61 56 58 58 57 57 54 51 51 50 49 48 48 46 45 43 40 41 41 42 41
75 79 82 90 91 96 100 110 106 109 100 87 84 83 72 71 77 76 71 67 72 73 76 76 70 63 56 60 55 56 58 58 56 56 54 54 53 51 50 48 48 45 44 42 41 40 41 41 40
Wind_Direction
192 195 200 201 196 192 196 212 198 191 196 201 209 212 199 181 177 170 208 3 7 38 28 33 21 17 19 19 22 21 19 18 17 15 20 21 18 18 11 2 354 1 15 12 359 352 8 18 38
199 204 216 223 227 212 211 223 211 202 205 208 215 220 223 211 233 255 284 297 306 327 337 1 6 6 12 12 12 13 15 14 11 11 11 13 12 10 8 5 354 348 354 6 15 6 3 8 23
203 214 221 225 233 238 229 220 218 201 210 218 216 225 231 230 241 252 272 272 282 286 301 321 348 348 358 3 5 7 11 12 8 10 9 9 8 6 4 1 359 345 352 6 14 7 2 349 335
205 214 218 234 240 243 238 225 216 206 213 219 221 229 234 236 247 255 263 263 273 274 279 297 324 330 341 350 356 359 3 8 9 12 10 5 7 5 7 2 355 341 345 350 348 349 340 334 324
209 218 224 238 245 242 237 237 217 214 214 220 231 235 235 244 252 260 261 267 272 279 280 286 301 312 322 334 344 351 356 360 5 5 6 4 5 359 357 360 349 310 323 329 336 344 342 336 332
219 225 232 236 253 254 237 238 222 219 219 218 230 239 244 246 251 255 260 262 266 275 282 286 291 298 308 320 331 340 345 348 356 356 358 1 0 354 349 357 353 312 297 309 321 335 338 343 344
229 233 234 245 260 261 240 231 223 227 228 227 231 241 246 246 252 254 256 261 266 270 277 283 284 290 298 309 317 327 334 339 342 347 348 351 350 351 346 345 349 338 305 300 307 318 327 330 328
241 244 248 256 257 265 246 228 232 232 235 239 240 240 249 250 253 255 258 262 264 267 270 277 282 285 290 298 307 316 321 329 327 334 335 339 338 336 341 340 338 336 325 308 303 306 308 314 311
244 248 257 256 252 253 249 233 234 233 239 248 250 245 244 248 253 257 258 263 266 268 270 276 279 283 288 293 301 306 309 317 320 318 323 324 326 329 328 333 331 323 321 312 303 301 299 299 298
246 252 255 259 260 250 247 242 235 236 244 250 246 250 253 253 254 258 261 263 264 266 271 275 280 281 284 290 295 298 302 305 311 309 310 315 315 318 321 324 326 321 312 310 301 293 291 290 290
247 256 259 263 264 259 251 250 244 247 254 257 254 255 252 253 254 256 259 263 267 269 271 272 275 281 283 286 286 289 294 296 300 305 302 304 307 310 313 318 321 318 312 308 308 299 291 288 285
256 263 265 266 266 260 254 252 251 250 258 262 264 262 254 255 256 259 262 266 270 274 275 276 275 276 278 280 282 285 288 290 292 295 298 295 297 299 305 312 315 316 311 306 305 305 297 294 290
261 264 267 266 267 264 255 252 253 257 260 255 256 259 259 258 260 259 261 266 268 270 269 270 271 273 275 277 281 284 285 287 288 288 293 291 290 290 292 301 310 315 314 308 303 301 301 297 294
270 270 270 269 268 263 260 251 257 247 248 258 261 259 258 256 256 258 261 260 263 265 269 269 270 272 274 278 280 281 283 283 283 284 287 286 284 284 285 288 296 304 310 312 305 299 296 295 294
269 267 268 265 266 270 267 256 256 248 251 256 259 260 263 263 264 264 263 267 269 270 269 273 272 272 273 273 275 277 276 276 277 279 281 280 280 280 281 282 287 294 300 305 306 301 295 293 292
264 266 267 271 275 275 271 253 257 258 259 259 262 263 266 267 266 266 266 266 266 265 267 265 267 269 270 271 271 272 273 273 274 275 276 276 275 277 278 279 281 286 292 298 302 302 294 290 290
272 276 274 272 276 274 271 269 265 262 266 267 269 271 271 271 272 271 268 267 267 267 267 268 269 269 268 269 270 270 271 273 273 272 272 271 272 274 276 276 278 282 286 292 298 300 294 288 289
281 279 280 282 278 274 276 281 275 276 274 273 276 275 276 277 277 277 271 269 266 265 263 264 266 267 267 267 267 268 269 269 268 266 265 266 270 272 272 273 275 279 283 287 293 296 292 286 286
283 285 286 285 285 280 282 282 287 283 279 283 282 282 282 281 277 274 272 267 265 265 266 266 265 267 268 269 270 269 267 264 265 265 266 268 270 271 269 270 273 276 280 284 289 293 290 285 286
289 289 291 290 290 287 289 285 290 290 293 286 286 285 281 275 273 271 269 267 265 265 265 267 267 267 268 268 267 267 265 265 266 268 269 269 269 267 267 269 271 273 277 280 285 290 289 283 283
290 295 294 296 294 295 290 284 291 296 288 291 283 280 281 279 275 272 271 271 270 269 267 265 265 265 264 264 266 268 267 267 267 268 266 263 262 264 268 267 268 271 274 277 282 287 287 281 281
296 297 298 299 298 297 293 286 289 289 293 291 288 288 288 286 284 282 278 275 271 269 268 267 267 265 264 264 264 264 265 266 266 264 263 264 266 266 266 265 267 267 271 275 280 285 284 280 280
297 297 297 297 295 293 295 293 294 297 298 299 297 297 297 293 291 287 284 278 276 270 268 268 266 266 267 266 264 263 262 261 261 263 265 266 265 264 263 264 265 265 269 274 279 284 281 279 280
298 298 298 296 296 296 295 293 290 297 298 297 299 299 299 297 292 289 286 283 280 274 268 267 267 267 266 266 266 265 261 259 260 260 260 260 260 261 262 263 262 264 268 273 279 282 279 277 279
299 298 298 299 298 298 297 296 299 300 296 296 292 293 294 295 294 290 286 283 276 270 270 265 262 263 264 263 263 265 260 257 256 256 257 257 256 259 259 259 260 263 267 274 280 280 278 277 279
300 297 298 299 300 298 298 299 298 300 299 294 292 292 291 290 288 288 287 284 277 269 265 263 262 259 259 261 260 261 260 257 254 253 255 254 254 256 256 258 259 263 269 274 277 278 277 277 279
300 298 299 299 301 301 300 300 300 303 302 301 296 291 291 292 291 290 288 284 280 272 263 257 256 255 255 257 257 254 256 258 256 250 249 251 252 253 254 255 259 265 270 274 275 275 276 278 280
298 300 303 305 304 303 302 302 305 302 301 298 296 294 293 292 292 287 280 268 267 254 245 243 248 244 248 251 254 253 253 256 254 250 248 249 250 250 253 256 261 266 269 272 272 273 275 277 281
302 303 304 303 305 306 305 300 304 300 298 296 295 293 291 288 282 273 264 260 251 245 238 242 241 240 242 249 248 245 248 251 250 248 245 244 247 249 253 257 261 265 268 269 271 273 274 276 281
308 308 307 307 306 304 303 303 303 300 298 296 295 291 284 274 269 266 265 259 252 250 242 240 239 236 242 243 241 242 244 246 244 241 239 240 242 247 251 254 260 263 264 268 271 272 273 277 281
Height
5923 5925 5927 5928 5932 5930 5930 5932 5932 5932 5934 5934 5934 5935 5936 5935 5935 5937 5935 5934 5933 5932 5931 5930 5929 5928 5927 5926 5924 5922 5920 5918 5917 5915 5913 5912 5911 5909 5908 5906 5905 5904 5903 5901 5900 5899 5898 5896 5896
5923 5924 5926 5928 5930 5929 5930 5929 5930 5932 5932 5933 5933 5934 5935 5935 5935 5934 5934 5934 5933 5932 5931 5930 5929 5928 5927 5926 5925 5923 5921 5920 5918 5915 5914 5912 5911 5909 5907 5906 5904 5904 5903 5902 5901 5900 5899 5897 5896
5922 5923 5926 5927 5928 5928 5929 5928 5928 5930 5931 5932 5932 5933 5934 5935 5934 5933 5933 5933 5933 5932 5931 5930 5929 5928 5927 5926 5925 5924 5922 5920 5918 5916 5914 5912 5911 5909 5907 5905 5904 5903 5903 5902 5901 5900 5900 5898 5897
5922 5924 5925 5926 5926 5927 5927 5927 5927 5928 5929 5930 5931 5931 5933 5933 5933 5932 5932 5932 5932 5931 5930 5929 5928 5927 5926 5925 5924 5923 5921 5919 5917 5916 5914 5912 5910 5908 5907 5905 5904 5903 5903 5902 5901 5900 5899 5898 5897
5922 5923 5924 5925 5925 5925 5925 5925 5925 5926 5927 5929 5929 5929 5930 5931 5931 5931 5931 5930 5930 5930 5929 5928 5926 5925 5925 5924 5923 5922 5921 5919 5917 5916 5914 5912 5910 5908 5907 5905 5903 5902 5902 5901 5900 5900 5898 5897 5896
5921 5922 5923 5923 5923 5923 5923 5924 5924 5924 5925 5927 5927 5927 5928 5928 5929 5929 5928 5928 5927 5927 5926 5926 5925 5924 5923 5922 5922 5921 5919 5917 5916 5915 5913 5911 5910 5908 5906 5904 5903 5901 5901 5900 5899 5898 5897 5896 5895
5919 5920 5922 5922 5921 5920 5920 5921 5922 5923 5924 5925 5925 5925 5925 5926 5926 5926 5926 5925 5925 5924 5923 5923 5922 5921 5920 5920 5919 5918 5917 5916 5914 5913 5912 5910 5908 5907 5905 5903 5901 5900 5899 5898 5897 5897 5896 5895 5894
5917 5918 5920 5920 5919 5919 5919 5920 5920 5921 5922 5922 5922 5923 5922 5922 5922 5922 5922 5922 5922 5921 5919 5919 5919 5918 5917 5917 5916 5915 5915 5914 5912 5911 5909 5908 5907 5905 5904 5902 5900 5898 5897 5896 5895 5894 5894 5893 5892
5914 5916 5917 5916 5916 5916 5916 5917 5918 5919 5919 5919 5919 5918 5918 5918 5918 5918 5918 5918 5918 5917 5916 5915 5915 5915 5914 5913 5913 5912 5912 5911 5909 5908 5907 5906 5905 5903 5901 5900 5898 5896 5895 5894 5893 5892 5890 5890 5889
5912 5913 5913 5913 5913 5914 5914 5915 5915 5917 5916 5915 5914 5914 5915 5914 5914 5914 5913 5914 5914 5913 5912 5911 5911 5911 5910 5910 5909 5908 5908 5907 5906 5905 5904 5903 5902 5900 5899 5897 5896 5894 5892 5891 5890 5889 5888 5886 5885
5910 5910 5909 5910 5910 5911 5911 5912 5913 5913 5914 5909 5911 5911 5912 5910 5909 5909 5909 5909 5909 5909 5908 5907 5907 5906 5905 5905 5904 5904 5903 5903 5902 5901 5900 5899 5899 5897 5896 5894 5892 5891 5889 5887 5886 5885 5884 5883 5881
5907 5906 5906 5906 5906 5906 5906 5907 5907 5909 5909 5907 5906 5907 5907 5906 5905 5904 5903 5903 5904 5905 5904 5902 5901 5900 5900 5900 5899 5899 5899 5898 5898 5897 5895 5895 5895 5894 5892 5890 5888 5886 5885 5883 5882 5880 5879 5878 5877
5904 5902 5902 5902 5901 5901 5901 5902 5902 5907 5902 5898 5900 5901 5901 5901 5901 5900 5899 5899 5898 5897 5896 5895 5894 5894 5894 5894 5893 5893 5893 5892 5892 5891 5891 5890 5889 5889 5888 5886 5885 5882 5880 5879 5877 5876 5874 5873 5871
5901 5900 5899 5898 5895 5895 5896 5898 5900 5898 5892 5894 5896 5895 5894 5894 5894 5894 5894 5893 5891 5889 5889 5888 5889 5888 5888 5888 5887 5886 5886 5885 5885 5885 5885 5884 5883 5883 5882 5881 5880 5878 5876 5874 5872 5871 5869 5867 5866
5895 5895 5894 5894 5891 5890 5891 5897 5895 5889 5889 5889 5888 5889 5889 5890 5889 5889 5887 5886 5885 5885 5883 5883 5881 5881 5881 5880 5879 5878 5877 5877 5878 5877 5877 5877 5876 5876 5875 5874 5873 5872 5871 5869 5867 5865 5863 5861 5860
5888 5889 5890 5890 5888 5886 5884 5891 5888 5886 5883 5883 5882 5883 5883 5883 5882 5882 5880 5880 5876 5875 5875 5872 5873 5873 5872 5872 5870 5869 5869 5869 5869 5869 5869 5869 5868 5868 5868 5867 5866 5865 5864 5862 5860 5858 5856 5854 5853
5885 5884 5884 5885 5884 5877 5875 5880 5886 5882 5878 5878 5878 5878 5877 5876 5875 5875 5874 5872 5869 5868 5867 5865 5864 5863 5863 5862 5861 5860 5860 5860 5860 5860 5860 5860 5859 5859 5859 5858 5858 5857 5856 5855 5853 5851 5849 5847 5845
5878 5877 5878 5879 5878 5870 5870 5870 5878 5878 5871 5872 5872 5870 5868 5868 5868 5864 5863 5861 5859 5856 5855 5855 5854 5854 5853 5852 5851 5852 5851 5851 5851 5850 5850 5849 5850 5850 5849 5849 5849 5848 5848 5846 5845 5843 5841 5839 5837
5871 5869 5869 5870 5869 5861 5864 5862 5866 5869 5867 5863 5863 5861 5858 5855 5853 5851 5849 5848 5845 5844 5844 5844 5843 5843 5841 5842 5842 5842 5841 5839 5839 5838 5839 5839 5840 5840 5839 5840 5840 5839 5839 5838 5836 5834 5832 5831 5829
5865 5863 5862 5862 5861 5857 5855 5856 5856 5857 5859 5856 5851 5849 5845 5841 5838 5835 5833 5833 5832 5831 5830 5829 5831 5830 5830 5830 5830 5829 5829 5828 5828 5828 5829 5830 5830 5829 5829 5831 5831 5830 5830 5829 5827 5825 5824 5823 5820
5858 5856 5854 5851 5852 5851 5844 5846 5847 5847 5846 5845 5840 5835 5833 5828 5825 5820 5819 5820 5820 5819 5818 5817 5816 5816 5817 5818 5818 5819 5818 5818 5818 5820 5819 5818 5816 5818 5821 5822 5821 5821 5821 5820 5818 5816 5815 5814 5812
5851 5849 5846 5844 5839 5837 5836 5831 5842 5834 5832 5829 5824 5823 5821 5818 5815 5811 5808 5807 5805 5804 5804 5803 5802 5802 5803 5803 5804 5805 5805 5805 5807 5806 5806 5807 5808 5810 5811 5811 5811 5811 5811 5810 5809 5807 5806 5804 5803
5844 5841 5838 5834 5831 5827 5826 5825 5828 5823 5816 5813 5809 5806 5801 5800 5799 5797 5795 5793 5791 5790 5789 5788 5787 5788 5789 5789 5790 5791 5792 5793 5792 5793 5795 5796 5797 5799 5799 5800 5801 5801 5801 5800 5799 5798 5796 5795 5794
5834 5830 5826 5823 5819 5816 5809 5811 5820 5809 5803 5797 5791 5790 5787 5785 5781 5779 5777 5777 5775 5773 5773 5772 5772 5772 5772 5774 5777 5778 5779 5779 5778 5780 5781 5783 5785 5786 5788 5789 5790 5790 5791 5790 5789 5789 5787 5786 5784
5824 5819 5812 5809 5804 5804 5794 5795 5802 5793 5785 5782 5773 5769 5765 5762 5759 5757 5756 5756 5758 5756 5755 5755 5755 5756 5755 5757 5760 5763 5764 5763 5765 5766 5768 5770 5772 5775 5776 5776 5779 5780 5780 5780 5780 5779 5778 5777 5775
5811 5806 5799 5790 5788 5786 5785 5778 5783 5773 5765 5756 5753 5747 5740 5736 5732 5729 5731 5733 5735 5735 5735 5735 5736 5738 5738 5741 5744 5746 5748 5749 5751 5753 5755 5757 5760 5763 5764 5767 5768 5769 5770 5770 5770 5770 5768 5767 5765
5793 5788 5783 5774 5770 5760 5763 5754 5756 5745 5733 5728 5721 5720 5713 5708 5704 5704 5703 5700 5704 5705 5711 5712 5714 5719 5720 5723 5725 5729 5733 5735 5738 5740 5742 5745 5748 5751 5754 5755 5757 5758 5759 5759 5759 5759 5758 5758 5755
5780 5774 5769 5756 5745 5734 5735 5729 5725 5719 5708 5698 5691 5688 5684 5678 5678 5675 5676 5679 5680 5681 5685 5689 5691 5696 5700 5705 5707 5710 5715 5719 5723 5725 5729 5733 5736 5738 5742 5744 5745 5746 5748 5748 5748 5748 5747 5746 5745
5765 5759 5750 5740 5724 5706 5696 5712 5714 5687 5675 5664 5657 5646 5647 5643 5640 5645 5648 5652 5658 5662 5663 5668 5671 5674 5680 5686 5690 5694 5699 5703 5707 5711 5714 5719 5722 5726 5729 5731 5733 5735 5737 5737 5738 5737 5736 5734 5733
5748 5737 5726 5712 5704 5693 5670 5667 5676 5658 5640 5632 5623 5612 5615 5615 5612 5612 5613 5620 5623 5631 5637 5645 5650 5654 5661 5668 5673 5679 5683 5688 5694 5697 5701 5704 5708 5712 5716 5719 5722 5724 5725 5726 5727 5726 5725 5724 5722